Regional Weather Roundup
Issued by NWS Newport/Morehead, NC

Current Version | Previous Version | Graphics & Text | Print | Product List | Glossary Off
Versions: 1 2 3 4 5 6 7 8 9 10 11 12 13 14 15 16 17 18 19 20 21 22 23 24 25 26 27 28 29 30 31 32 33 34 35 36 37 38 39 40 41 42 43 44 45 46 47 48 49 50

738
ASUS42 KMHX 190525
RWRMHX
WEATHER ROUNDUP FOR EASTERN NORTH CAROLINA
NATIONAL WEATHER SERVICE NEWPORT/MOREHEAD CITY NC
1200 AM EST THU JAN 19 2017

NOTE: "FAIR" INDICATES FEW OR NO CLOUDS BELOW 12,000 FEET
WITH NO SIGNIFICANT WEATHER AND/OR OBSTRUCTIONS TO VISIBILITY

NCZ015>017-031-032-045>047-102-103-190600-
NORTH COAST

CITY           SKY/WX    TMP DP  RH WIND       PRES   REMARKS
EDENTON        PTCLDY    43  41  92 CALM      30.07R
ELIZABETH CITY CLEAR     43  40  89 CALM      30.05R
KITTY HAWK     NOT AVBL
MANTEO         CLEAR     45  44  99 N3        30.05R

$$

NCZ045>047-081-094-103-104-190600-
CENTRAL COAST

CITY           SKY/WX    TMP DP  RH WIND       PRES   REMARKS
FRISCO         CLEAR     49  45  86 VRB3      30.03F

$$

NCZ095-097-098-100-101-190600-
SOUTHERN COAST

CITY           SKY/WX    TMP DP  RH WIND       PRES   REMARKS
BEAUFORT       PTCLDY    48  44  86 NE6       30.05F
CEDAR ISLAND   NOT AVBL
JACKSONVILLE   CLEAR     49  44  83 E5        30.04F
PINEY ISLAND   CLOUDY   N/A N/A N/A NW3       30.06S
WILMINGTON     CLEAR     50  46  86 E6        30.05F


$$

NCZ011>013-027>030-043-044-078>080-089-090>093-098-190600-
COASTAL PLAIN

CITY           SKY/WX    TMP DP  RH WIND       PRES   REMARKS
AHOSKIE          N/A     40  39  98 CALM      30.06F FOG
CLINTON        CLEAR     46  42  86 CALM      30.06S
ELIZABETHTOWN  CLEAR     45  40  81 CALM      30.06R
GOLDSBORO      CLOUDY    46  41  82 CALM      30.04R
GREENVILLE     CLEAR     45  45 100 CALM      30.08R
HAVELOCK       CLOUDY    47  43  86 E6        30.06F
KENANSVILLE    CLEAR     39  37  93 CALM      30.05F
KINSTON        CLEAR     42  40  94 CALM      30.06S
NEW BERN       PTCLDY    41  40  96 CALM      30.06F
RICHLANDS      CLEAR     40  39  97 CALM      30.05S
ROCKY MOUNT    CLOUDY    42  38  85 CALM      30.06S
WASHINGTON     PTCLDY    41  40  97 CALM        N/A
WHITEVILLE     CLEAR     47  42  81 CALM      30.04S

$$

AMZ130-135-150-152-154-156-158-170-250-252-270-ANZ085-086-088-633-658-670-190600-
MARINE OBSERVATIONS

STATION/POSITION TIME  TEMP    WIND        PRES    WAVE   SWELL
                       AIR SEA DIR/SP/G            HT/PER HT/PER
                 (UTC) (F)     (DEG/KT/KT) (MB)    (FT/S) (FT/S)
CHESAPEAKE LIGHT NOT AVBL
64 E VA BEACH    0450   51 57   10/ 21/ 27 1015.1    6/ 6   3/ 7
DUCK             0500   46 45  330/  8/  9 1016.7
2 E DUCK         0500      46                N/A     2/ 5
OREGON INLET     0500          330/  5/  7   N/A
13E OREGON INLT  NOT AVBL
HATTERAS CG      0500   50 55  330/  9/ 11 1016.8
DIAMOND BUOY     0450   54 75   10/ 16/ 19 1016.5    5/ 8   3/ 8
CAPE LOOKOUT     0500   52      20/ 11/ 13 1016.9
BEAUFORT LAB     0500   49 51   30/  5/  7 1016.3
30 SE NEW RVR IN 0508   57 62   60/ 16/ 21 1016.8
30 SE NEW RVR IN 0443      62                N/A     5/ 7
27 SE WRIGHTSVLE 0508   60 68   70/ 12/ 19 1016.7
5 SE WRIGHTSVLE  0408   55      90/  8/ 12 1017.5
225 S CAPE HAT   0450   68 72   20/ 21/ 25 1014.5    9/ 8   5/ 8
41 SE CHARLESTON 0450   69 71  280/ 14/ 16 1015.8    4/ 6   2/10

$$




USA.gov is the U.S. government's official web portal to all federal, state and local government web resources and services.